Regional Weather Roundup
Issued by NWS

Home | Current Version | Previous Version | Graphics & Text | Print | Product List | Glossary On
Versions: 1 2 3 4 5 6 7 8 9 10 11 12 13 14 15 16 17 18 19 20 21 22 23 24 25 26 27 28 29 30 31 32 33 34 35 36 37 38 39 40 41 42 43 44 45 46 47 48 49 50
022
ASUS44 KMEG 240510
RWRTN
TENNESSEE HOURLY STATE WEATHER ROUNDUP
NATIONAL WEATHER SERVICE MEMPHIS TN
1200 AM CDT WED AUG 24 2016

TNZ002-004-019-021-049-052-054-088>092-240600-
WEST TENNESSEE

CITY           SKY/WX    TMP DP  RH WIND       PRES   REMARKS
MEMPHIS INTL   CLEAR     82  72  71 S8        30.14S
NWS MEMPHIS      N/A     78 N/A N/A MISG        N/A
JACKSON        CLEAR     76  74  93 S5        30.16F
DYERSBURG      CLOUDY    81  73  78 MISG      30.14F
UNION CITY     CLEAR     75  73  94 SE8       30.13F
PARIS          CLEAR     72  72 100 SE5       30.17F
$$

TNZ008-025-027-028-033-062-065-066-240600-
NORTH MIDDLE TENNESSEE

CITY           SKY/WX    TMP DP  RH WIND       PRES   REMARKS
NASHVILLE      PTCLDY    74  70  87 S3        30.20F
CLARKSVILLE    CLEAR     73  71  93 SE5       30.18F
COOKEVILLE     CLEAR     68  68 100 CALM      30.23F
CROSSVILLE     CLEAR     67  66  97 CALM      30.29F
$$

TNZ061-075-076-078-094-096-097-240600-
SOUTH MIDDLE TENNESSEE

CITY           SKY/WX    TMP DP  RH WIND       PRES   REMARKS
FAYETTEVILLE   PTCLDY    73  70  88 SE3       30.22F
TULLAHOMA      CLEAR     70  68  94 CALM      30.24F
WINCHESTER     CLEAR     70  70 100 CALM      30.23F
MCMINNVILLE    CLEAR     70  70 100 CALM      30.24F
COLUMBIA       CLEAR    N/A N/A N/A CALM      30.19F
SHELBYVILLE    CLEAR     73  73 100 E3        30.23S
$$

TNZ017-018-042-046-047-240600-
NORTHEAST TENNESSEE

CITY           SKY/WX    TMP DP  RH WIND       PRES   REMARKS
TRI CITIES     PTCLDY    66  63  90 CALM      30.29S
ELIZABETHTON     N/A     66  63  88 E3        30.30S
$$

TNZ012-013-036-069-073-074-240600-
CENTRAL EAST TENNESSEE

CITY           SKY/WX    TMP DP  RH WIND       PRES   REMARKS
KNOXVILLE      NOT AVBL
OAK RIDGE      CLEAR     70  66  87 CALM      30.26S
GATLINBURG     CLEAR     70  66  88 CALM      30.25S
MORRISTOWN     CLOUDY    72  66  83 CALM      30.26S
$$

TNZ083-085-099-240600-
SOUTHEAST TENNESSEE

CITY           SKY/WX    TMP DP  RH WIND       PRES   REMARKS
CHATTANOOGA    CLEAR     77  68  73 CALM      30.23S
$$

SKY/WX REPORTED AS FAIR MEANS FEW OR NO CLOUDS BELOW
12 THOUSAND FEET.





USA.gov is the U.S. government's official web portal to all federal, state and local government web resources and services.